sat.trackr.live / text

‹ back to catalog

STARLINK-36265

NORAD 67208 · 2025-304S

PAYLOAD ACTIVE UNKNOWN

§ Identity

Operator
Country
US
Launch date
2025-12-17
Launch site
AFWTR
Launch vehicle
Mass (kg)
RCS (m²)

Purposes: comms

External: N2YO · Heavens-Above · Gunter

§ Orbital elements

Epoch: 2026-05-24T19:27:15.826176Z

Period
96.11 min
Inclination
70.0023°
Eccentricity
0.0002376
Mean motion
14.98331899 rev/d
Perigee alt
570.4 km
Apogee alt
573.7 km
Semi-major
6,950.2 km
B*
1.4353e-4
RAAN
342.6613°
Arg perigee
268.0389°
Mean anomaly
92.0498°
Rev number
2,528

§ Raw data

STARLINK-362651 67208U 25304S   26144.81059984  .00001620  00000+0  14353-3 0  99952 67208  70.0023 342.6613 0002376 268.0389  92.0498 14.98331899 25280

JSON: /api/v1/satellites/67208 · /tle

For live sub-satellite position, see the globe view (requires WebGL).

§ Visibility from observer

Set your observer location to see the next 7 days of passes ≥ 10°. The values pass through the URL so the page stays shareable.

No JS? Fill the form by hand. The geolocation button needs JavaScript.